Location: Newark
(41.7772°N, 74.7403°W)
Time: 02:05:33
(UTC+00:00)

Courier 1B - Visible Passes

Search period start: 06 May 2021 00:00
Search period end: 16 May 2021 00:00
Orbit: 962 x 1209 km, 28.3° (Epoch: 05 May)

Date Brightness Start Highest point End Pass type
(mag) Time Alt. Az. Time Alt. Az. Time Alt. Az.
08 May 9.8 08:34:15 10° S 08:37:02 12° SSE 08:39:51 10° SE visible
10 May 9.6 08:37:53 10° SSW 08:42:50 18° SSE 08:47:50 10° ESE visible
11 May 9.6 07:46:41 13° S 07:49:12 15° SSE 07:53:08 10° SE visible
12 May 9.8 06:56:02 11° SSE 06:56:02 11° SSE 06:57:26 10° SE visible
12 May 9.2 08:42:55 10° SW 08:48:40 24° SSE 08:54:37 10° ESE visible
13 May 9.2 07:52:15 17° S 07:55:00 21° SSE 08:00:25 10° ESE visible
14 May 9.4 07:01:34 17° SSE 07:01:34 17° SSE 07:05:57 10° ESE visible
14 May 9.0 08:48:27 10° SW 08:54:34 28° S 09:00:59 10° ESE visible
15 May 9.9 06:10:54 10° SE 06:10:54 10° SE 06:11:00 10° SE visible
15 May 9.0 07:57:46 20° SSW 08:00:52 25° SSE 08:06:58 10° ESE visible
